www.pogodaiklimat.ru

Погода и климат >> Архив погоды >> Венгрия >> Порозло


ПОГОДА в Порозло

  • Прогноз погоды в Порозло
  • Монитор погоды в Порозло

АРХИВ ПОГОДЫ в Порозло

Время (UTC), дата Ветер
(напр.,м/с)
 
Видим.   Явления Облачность Т
(С)
Тd
(С)
f
(%)
Тe
(С)
Тes
(С)
Комфортность P
(гПа)
Po
(гПа)
Тmin
(С)
Tmax
(С)
R
(мм)
R24
(мм)
S
(см)
07 16.07 СВ 2 н/о н/о +21.8 +10.6 49 +24 +24 комфорт 1013.2 1002.6
08 16.07 ЮВ 2 н/о н/о +23.5 +10.2 43 +25 +25 комфорт 1012.9 1002.4
09 16.07 ЮВ 3 н/о н/о +24.6 +9.4 38 +25 +25 комфорт 1012.7 1002.2
10 16.07 Ю 2 н/о н/о +25.2 +8.7 35 +26 +26 жарко 1012.3 1001.9
11 16.07 З 2
{10}
н/о н/о +26.2 +6.3 28 +26 +26 жарко 1012.1 1001.7
12 16.07 З 3
{9}
н/о н/о +27.5 +5.7 25 +27 +27 жарко 1011.4 1001.1
13 16.07 Ю 3
{8}
н/о н/о +25.8 +7.4 31 +26 +26 жарко 1011.3 1000.9
14 16.07 З 3 н/о н/о +27.8 +7.1 27 +27 +27 жарко 1010.6 1000.3
15 16.07 З 3
{8}
н/о н/о +27.9 +7.2 27 +27 +27 жарко 1010.1 999.8
16 16.07 З 5
{8}
н/о н/о +26.9 +7.9 30 +27 +27 жарко 1009.8 999.5
17 16.07 З 3 н/о н/о +24.8 +9.1 37 +25 +25 комфорт 1009.7 999.3
18 16.07 З 4
{9}
н/о н/о +24.2 +10.1 41 +25 +25 комфорт 1009.6 999.2 +28.2
19 16.07 З 3 н/о н/о +21.0 +10.8 52 +23 +23 комфорт 1010.3 999.7
20 16.07 ЮЗ 3 н/о н/о +19.9 +11.4 58 +22 +22 комфорт 1010.6 1000.0
21 16.07 З 3 н/о н/о +17.2 +11.2 68 +17 +17 1010.9 1000.2
22 16.07 З 2 н/о н/о +15.1 +11.1 77 +15 +15 1011.1 1000.3
23 16.07 СЗ 1 н/о н/о +15.2 +11.4 78 +16 +16 1011.4 1000.6
00 17.07 штиль 0 н/о н/о +14.4 +10.8 79 +14 +14 1011.7 1000.9
01 17.07 СВ 1 н/о н/о +15.0 +10.4 74 +16 +16 1011.6 1000.8
02 17.07 СВ 1 н/о н/о +13.3 +8.8 74 +14 +14 1011.7 1000.8
03 17.07 СЗ 1 н/о н/о +11.4 +8.8 84 +11 +11 1011.9 1001.0
04 17.07 З 1 н/о н/о +11.3 +9.0 86 +11 +11 1012.2 1001.3
05 17.07 С 2 н/о н/о +16.8 +11.1 69 +17 +17 1012.2 1001.5
06 17.07 С 4 н/о н/о +19.1 +9.6 54 +20 +20 1012.2 1001.6 +10.7
07 17.07 СЗ 3 н/о н/о +20.4 +11.6 57 +23 +23 комфорт 1012.2 1001.6
08 17.07 СЗ 2 н/о н/о +21.8 +10.9 50 +24 +24 комфорт 1012.1 1001.6
09 17.07 СЗ 2 н/о н/о +21.9 +10.4 48 +24 +24 комфорт 1011.9 1001.4
10 17.07 ЮВ 3 н/о н/о +22.4 +11.2 49 +25 +25 комфорт 1011.8 1001.3
11 17.07 ЮВ 3 н/о н/о +23.0 +10.4 45 +25 +25 комфорт 1011.5 1001.0
12 17.07 ЮВ 3
{7}
н/о н/о +24.7 +10.6 41 +26 +26 жарко 1011.1 1000.7
13 17.07 ЮВ 4 н/о н/о +24.6 +9.7 39 +25 +25 комфорт 1010.9 1000.5
14 17.07 ЮВ 2 н/о н/о +25.3 +10.0 38 +26 +26 жарко 1010.7 1000.3
15 17.07 ЮВ 3 н/о н/о +26.0 +10.2 37 +27 +27 жарко 1010.4 1000.0
16 17.07 ЮВ 3 н/о н/о +25.8 +10.0 37 +27 +27 жарко 1010.3 999.9
17 17.07 ЮВ 3 н/о н/о +25.5 +10.2 38 +26 +26 жарко 1010.2 999.8
18 17.07 ЮВ 2 н/о н/о +24.4 +12.0 46 +26 +26 жарко 1010.2 999.8 +26.3
19 17.07 Ю 2 н/о н/о +21.6 +13.0 58 +24 +24 комфорт 1010.7 1000.2
20 17.07 ЮВ 2 н/о н/о +20.7 +12.4 59 +24 +24 комфорт 1011.0 1000.4
21 17.07 В 2 н/о н/о +18.2 +11.8 66 +19 +19 1011.3 1000.6
22 17.07 В 2 н/о н/о +18.3 +11.6 65 +19 +19 1012.0 1001.3
23 17.07 В 3
{7}
н/о н/о +18.8 +10.9 60 +20 +20 1012.2 1001.5
00 18.07 СВ 3 н/о н/о +14.9 +10.1 73 +14 +14 1012.5 1001.7
01 18.07 СВ 2 н/о н/о +13.8 +9.8 77 +13 +13 1012.6 1001.8
02 18.07 СВ 2 н/о н/о +13.0 +9.8 81 +12 +12 1012.6 1001.7
03 18.07 СВ 2 н/о н/о +13.1 +10.1 82 +12 +12 1012.9 1002.0
04 18.07 В 1 н/о н/о +13.3 +10.1 81 +13 +13 1013.0 1002.1
06 18.07 В 3 н/о н/о +18.2 +12.0 67 +19 +19 1013.3 1002.6 +12.9
07 18.07 В 3 н/о н/о +21.1 +12.3 57 +23 +23 комфорт 1013.1 1002.5
08 18.07 В 3 н/о н/о +22.9 +11.3 48 +25 +25 комфорт 1013.0 1002.5
09 18.07 В 3 н/о н/о +24.6 +10.1 40 +26 +26 жарко 1013.3 1002.8
10 18.07 В 2 н/о н/о +26.2 +8.7 33 +26 +26 жарко 1013.0 1002.6
11 18.07 ЮВ 2 н/о н/о +26.1 +8.6 33 +26 +26 жарко 1012.9 1002.5
12 18.07 Ю 2 н/о н/о +25.5 +9.3 36 +26 +26 жарко 1012.8 1002.4
13 18.07 Ю 2 н/о н/о +26.3 +10.5 37 +27 +27 жарко 1012.8 1002.4
14 18.07 Ю 4
{7}
н/о н/о +25.4 +12.9 46 +27 +27 жарко 1012.9 1002.5
15 18.07 ЮЗ 5
{8}
н/о н/о +25.4 +13.9 49 +28 +28 жарко 1012.6 1002.2
16 18.07 ЮЗ 4
{7}
н/о н/о +25.1 +13.6 49 +27 +27 жарко 1012.4 1002.0
17 18.07 С 8
{14}
н/о н/о +20.5 +9.1 48 +21 +21 комфорт 1013.9 1003.3
18 18.07 СВ 3
{12}
н/о н/о +17.5 +13.2 76 +18 +18 1013.7 1003.0 +26.6
19 18.07 СВ 1 н/о н/о +16.6 +12.8 78 +17 +17 1014.6 1003.8
20 18.07 СЗ 1 н/о н/о +14.0 +11.9 87 +14 +14 1015.0 1004.1
21 18.07 СЗ 2 н/о н/о +13.2 +11.8 91 +12 +12 1015.2 1004.3
22 18.07 З 2 н/о н/о +12.8 +11.9 94 +12 +12 1015.5 1004.6
23 18.07 С 1 н/о н/о +13.1 +12.5 96 +13 +13 1015.9 1005.0
00 19.07 штиль 0 н/о н/о +12.1 +10.8 92 +11 +11 1016.1 1005.2
01 19.07 СВ 1 н/о н/о +11.5 +11.0 97 +11 +11 1016.3 1005.3
02 19.07 штиль 0 н/о н/о +10.8 +10.6 99 +10 +10 1016.3 1005.3
03 19.07 З 1 н/о н/о +9.9 +9.8 99 +9 +9 1016.7 1005.7
04 19.07 С 1 н/о н/о +11.3 +10.8 97 +11 +11 1016.8 1005.8
05 19.07 СВ 1 н/о н/о +15.8 +13.3 85 +16 +16 1016.7 1005.9
06 19.07 СВ 1 н/о н/о +18.9 +13.7 72 +21 +21 комфорт 1016.8 1006.1 +9.9 0.1
07 19.07 СВ 1 н/о н/о +21.0 +13.7 63 +25 +25 комфорт 1016.8 1006.2
08 19.07 СВ 2 н/о н/о +22.8 +14.1 58 +26 +26 жарко 1017.0 1006.4
09 19.07 ЮВ 3 н/о н/о +24.6 +13.8 51 +27 +27 жарко 1016.9 1006.4
10 19.07 ЮВ 3 н/о н/о +25.8 +15.2 52 +29 +29 душно 1016.9 1006.4
11 19.07 Ю 4 н/о н/о +27.2 +14.6 46 +30 +30 душно 1016.5 1006.1
12 19.07 Ю 4
{7}
н/о н/о +27.9 +12.7 39 +29 +29 жарко 1016.1 1005.7
13 19.07 ЮЗ 3
{7}
н/о н/о +28.4 +12.7 38 +30 +30 жарко 1015.7 1005.3
14 19.07 ЮЗ 4
{10}
н/о н/о +25.4 +12.6 45 +27 +27 жарко 1015.6 1005.1
15 19.07 Ю 4 н/о н/о +27.5 +12.3 39 +29 +29 жарко 1015.4 1005.0
16 19.07 ЮВ 3
{8}
н/о н/о +26.0 +14.1 48 +28 +28 жарко 1015.3 1004.9
17 19.07 ЮЗ 2 н/о н/о +24.5 +14.6 54 +27 +27 жарко 1015.8 1005.3
18 19.07 ЮВ 2 н/о н/о +23.6 +14.9 58 +26 +26 жарко 1016.0 1005.5 +28.6
19 19.07 СЗ 2 н/о н/о +22.1 +14.5 62 +25 +25 комфорт 1016.4 1005.8
20 19.07 В 2 н/о н/о +20.7 +15.0 70 +24 +24 комфорт 1016.8 1006.2
21 19.07 СВ 3 н/о н/о +20.2 +15.8 76 +23 +23 комфорт 1017.5 1006.8
22 19.07 СВ 2 н/о н/о +19.8 +16.3 80 +23 +23 комфорт 1017.8 1007.1
23 19.07 ЮВ 1 н/о н/о +19.7 +15.8 78 +23 +23 комфорт 1017.5 1006.8
00 20.07 ЮВ 1 н/о н/о +18.7 +15.4 81 +21 +21 комфорт 1017.2 1006.5 0.1
01 20.07 З 1 н/о н/о +16.0 +14.9 93 +17 +17 1017.3 1006.5
02 20.07 штиль 0 н/о н/о +15.8 +15.2 96 +16 +16 1017.5 1006.7
03 20.07 В 1 н/о н/о +16.2 +15.7 97 +17 +17 1017.9 1007.1
05 20.07 В 2 н/о н/о +18.6 +16.6 88 +20 +20 1018.2 1007.5
06 20.07 В 2 н/о н/о +21.8 +15.2 66 +25 +25 комфорт 1018.3 1007.7 +15.6 0.1
07 20.07 ЮВ 1 н/о н/о +22.4 +15.5 65 +26 +26 жарко 1018.6 1008.0
08 20.07 Ю 2 н/о н/о +23.3 +15.9 63 +28 +28 душно 1018.7 1008.1
09 20.07 Ю 2 н/о н/о +25.7 +16.8 58 +29 +29 душно 1018.6 1008.1
10 20.07 ЮВ 2 н/о н/о +27.8 +17.6 54 +32 +32 душно 1018.3 1007.9
11 20.07 ЮВ 3 н/о н/о +29.6 +16.4 45 +33 +33 душно 1017.9 1007.6
12 20.07 Ю 3 н/о н/о +29.3 +14.7 41 +32 +32 душно 1017.5 1007.2
13 20.07 Ю 4 н/о н/о +30.5 +13.3 35 +32 +32 жарко 1016.9 1006.6
14 20.07 Ю 3
{7}
н/о н/о +30.3 +14.4 38 +32 +32 жарко 1016.8 1006.5
15 20.07 Ю 3 н/о н/о +30.9 +13.7 35 +32 +32 жарко 1016.3 1006.0
16 20.07 ЮВ 4
{8}
н/о н/о +28.0 +16.0 48 +31 +31 душно 1016.5 1006.1
17 20.07 ЮВ 3 н/о н/о +27.5 +16.2 50 +31 +31 душно 1016.5 1006.1
18 20.07 ЮВ 2 н/о н/о +26.5 +16.4 54 +30 +30 душно 1016.8 1006.4 +31.2
19 20.07 ЮВ 3 н/о н/о +24.3 +18.5 70 +29 +29 душно 1017.4 1006.9
20 20.07 В 4
{7}
н/о н/о +23.1 +17.3 70 +28 +28 душно 1018.0 1007.4
21 20.07 ЮВ 3
{7}
н/о н/о +23.5 +17.3 68 +27 +27 душно 1017.7 1007.2
22 20.07 Ю 2 н/о н/о +22.7 +17.0 70 +27 +27 душно 1018.0 1007.4
23 20.07 В 2 н/о н/о +20.9 +17.7 82 +26 +26 душно 1018.2 1007.6
00 21.07 СВ 2 н/о н/о +19.4 +17.5 89 +22 +22 комфорт 1018.2 1007.5 0.2
01 21.07 С 1 н/о н/о +18.0 +17.0 94 +19 +19 1018.1 1007.4
02 21.07 С 1 н/о н/о +17.4 +16.8 96 +18 +18 1018.2 1007.4
03 21.07 СВ 2 н/о н/о +17.7 +17.4 98 +18 +18 1018.0 1007.2
04 21.07 СВ 2 н/о н/о +17.9 +17.9 100 +18 +18 1018.2 1007.5
05 21.07 В 1 н/о н/о +20.5 +19.2 92 +26 +26 душно 1018.6 1007.9
06 21.07 СВ 1 н/о н/о +21.9 +18.5 81 +27 +27 душно 1018.9 1008.3 +17.3 0.3
07 21.07 В 2 н/о н/о +24.0 +18.2 70 +28 +28 душно 1018.7 1008.2
08 21.07 ЮВ 1 н/о н/о +25.2 +18.4 66 +30 +30 душно 1018.8 1008.3
09 21.07 Ю 2 н/о н/о +26.7 +17.5 57 +31 +31 душно 1018.7 1008.3
10 21.07 Ю 3 н/о н/о +28.8 +17.3 50 +33 +33 очень
душно
1018.7 1008.3
11 21.07 Ю 4 н/о н/о +30.7 +17.1 44 +34 +34 очень
душно
1018.2 1007.9
12 21.07 Ю 3 н/о н/о +31.5 +15.5 38 +34 +34 душно 1017.6 1007.3
13 21.07 Ю 4
{7}
н/о н/о +32.0 +15.9 38 +35 +35 очень
душно
1016.8 1006.6
14 21.07 Ю 2 н/о н/о +30.2 +16.2 43 +33 +33 душно 1016.6 1006.3
15 21.07 Ю 4
{16}
н/о н/о +24.5 +18.7 70 +29 +29 душно 1017.4 1006.9
16 21.07 Ю 6
{15}
н/о н/о +22.8 +17.5 72 +28 +28 душно 1017.4 1006.8
17 21.07 СВ 1
{11}
н/о н/о +23.7 +19.0 75 +28 +28 душно 1017.3 1006.8
18 21.07 СВ 3 н/о н/о +23.3 +18.0 72 +29 +29 душно 1018.3 1007.7 +32.4 7
19 21.07 СВ 2 н/о н/о +22.2 +17.8 76 +27 +27 душно 1018.9 1008.3
20 21.07 В 2 н/о н/о +20.7 +17.7 83 +25 +25 комфорт 1019.2 1008.5
21 21.07 СВ 2 н/о н/о +19.9 +16.9 83 +23 +23 комфорт 1019.8 1009.1
22 21.07 С 2 н/о н/о +19.3 +17.3 88 +22 +22 комфорт 1020.6 1009.9
23 21.07 В 2 н/о н/о +18.6 +17.4 93 +20 +20 1020.8 1010.0
00 22.07 В 1 н/о н/о +18.3 +17.7 96 +20 +20 1021.1 1010.3
01 22.07 В 1 н/о н/о +17.5 +17.2 98 +19 +19 1020.7 1009.9
02 22.07 С 1 н/о н/о +16.3 +16.3 100 +17 +17 1021.0 1010.2
03 22.07 С 1 н/о н/о +15.5 +15.5 100 +16 +16 1021.2 1010.3
04 22.07 С 1 н/о н/о +15.8 +15.8 100 +16 +16 1021.6 1010.7
05 22.07 С 1 н/о н/о +19.1 +17.2 89 +22 +22 комфорт 1021.7 1011.0
06 22.07 С 2 н/о н/о +22.0 +16.5 71 +26 +26 душно 1021.9 1011.3 +15.1
07 22.07 СВ 3 н/о н/о +23.8 +16.3 63 +27 +27 жарко 1021.8 1011.2
08 22.07 СВ 3 н/о н/о +25.7 +15.7 54 +29 +29 душно 1021.8 1011.3
09 22.07 С 4
{7}
н/о н/о +26.1 +15.5 52 +29 +29 жарко 1022.0 1011.5
10 22.07
{7}
н/о н/о +26.9 +15.3 49 1021.9 1011.4
11 22.07 СВ 3
{7}
н/о н/о +27.6 +14.9 46 +30 +30 жарко 1021.4 1011.0
12 22.07 С 2
{7}
н/о н/о +28.2 +14.8 44 +31 +31 душно 1021.1 1010.7
13 22.07 ЮВ 3
{8}
н/о н/о +27.9 +14.9 45 +30 +30 жарко 1020.3 1009.9
14 22.07 Ю 3 н/о н/о +28.6 +15.5 45 +31 +31 жарко 1019.9 1009.5
15 22.07 ЮВ 3 н/о н/о +28.1 +16.1 48 +31 +31 душно 1019.6 1009.2
16 22.07 С 3 н/о н/о +29.0 +13.3 38 +31 +31 жарко 1019.2 1008.8
17 22.07 В 3
{8}
н/о н/о +26.7 +16.0 52 +30 +30 душно 1019.3 1008.9
18 22.07 В 2 н/о н/о +24.8 +16.8 61 +28 +28 жарко 1019.5 1009.0 +29.2
19 22.07 В 1 н/о н/о +23.3 +17.3 69 +29 +29 душно 1019.9 1009.3
20 22.07 СВ 1 н/о н/о +21.5 +17.1 76 +25 +25 комфорт 1020.0 1009.4
21 22.07 н/о н/о +19.2 +16.1 82 1020.2 1009.5
22 22.07 С 1 н/о н/о +18.0 +15.6 86 +19 +19 1020.4 1009.6
23 22.07 С 1 н/о н/о +17.5 +15.5 88 +19 +19 1020.3 1009.5
00 23.07 СВ 1 н/о н/о +17.8 +15.4 86 +19 +19 1020.1 1009.3
01 23.07 штиль 0 н/о н/о +17.7 +15.5 87 +18 +18 1019.8 1009.0
02 23.07 З 1 н/о н/о +17.4 +15.6 89 +18 +18 1019.2 1008.4
03 23.07 З 1 н/о н/о +17.3 +15.5 89 +18 +18 1019.0 1008.2
04 23.07 З 1 н/о н/о +17.7 +16.0 90 +19 +19 1019.0 1008.2
05 23.07 З 1 н/о н/о +18.8 +16.9 89 +21 +21 комфорт 1018.8 1008.1
06 23.07 З 1 н/о н/о +20.6 +17.2 81 +25 +25 комфорт 1018.8 1008.1 +16.7
07 23.07 СВ 2 н/о н/о +21.9 +16.2 70 +26 +26 душно 1018.8 1008.2
08 23.07 В 3 н/о н/о +23.2 +16.0 64 +28 +28 душно 1018.8 1008.2

 

Местоположение метеостанции Порозло (Венгрия): широта 47.65 долгота 20.63 высота над уровнем моря 92 м.

В архиве по умолчанию представлена погода в Порозло за последнюю неделю. Архивные данные за месяц целиком и за предыдущие месяцы, начиная с января 2011 года, Вы можете получить, выбрав интересующий диапазон дат из раскрывающегося списка и нажав кнопку "Ввод!".


*Определитесь, кто Вы:
робот инопланетянин человек

Внимание! Время в таблицах - всемирное. Для получения местного времени необходимо прибавить поправку, которая равна 1 ч.

Смотрите также архив погоды в соседних городах и на ближайших метеорологических станциях:

Погода в Эгере (Венгрия) (34 км)
Погода в Мишкольце (Венгрия) (51 км)
Погода на Кекеше (Венгрия) (52 км)
Погода в Сольноке (Венгрия) (66 км)
Погода в Дебрецене (Венгрия) (75 км)
Погода в Йосвафо (Венгрия) (93 км)
Погода в Сечене (Польша) (98 км)
Погода в Ньиредьхазе (Венгрия) (100 км)
Погода в Лученце (Словакия) (101 км)
Погода в Кечкемете (Венгрия) (105 км)

Пояснения к столбцам:

Ветер - указаны скорость ветра в м/с - средняя за 10 мин, порывы в срок и между сроками (в фигурных скобках) и направление, откуда дует ветер: С - северный, СВ - северо-восточный, В - восточный, ЮВ - юго-восточный, Ю - южный, ЮЗ - юго-западный, З - западный, СЗ - северо-западный.
Видимость - горизонтальная дальность видимости в метрах или километрах. При видимости от 1 до 10 км при отсутствии осадков обычно наблюдается дымка, при ухудшении видимости до 1 км и менее - туман. В сухую погоду видимость может ухудшаться дымом, пылью или мглою.
Явления - указаны атмосферные явления, наблюдавшиеся в срок или в последний час перед сроком; фигурными скобками обозначены явления, наблюдавшиеся между сроками (за 1-3 часа до срока); квадратными скобками обозначены град или гололедные отложения с указанием их диаметра в мм.
Облачность - указаны через наклонную черту общая и нижняя облачность в баллах и высота нижней границы облаков в метрах; квадратными скобками обозначены формы облаков: Ci - перистые, Cs - перисто-слоистые, Cc - перисто-кучевые, Ac - высококучевые, As - высокослоистые, Sc - слоисто-кучевые, Ns - слоисто-дождевые, Cu - кучевые, Cb - кучево-дождевые. Подробнее классификацию облаков см. в Атласе облаков (PDF).
T - Температура воздуха - температура, измеренная на высоте 2 м над землей.
Td - Температура точки росы - температура, при понижении до которой содержащийся в воздухе водяной пар достигнет насыщения.
f - Относительная влажность воздуха - влажноcть воздуха, измеренная на высоте 2 м над землей.
Te - Эффективная температура - температура, которую ощущает одетый по сезону человек в тени. Характеристика душности погоды. При расчете учитывается влияние влажности воздуха и скорости ветра на теплоощущения человека.
Tes - Эффективная температура на солнце - температура, которую ощущает человек, с поправкой на солнечный нагрев. Характеристика знойности погоды. Зависит от высоты солнца над горизонтом, облачности и скорости ветра. Ночью, в пасмурную погоду, а также при ветре 12 м/с и более поправка равна нулю.
P - Атмосферное давление - приведенное к уровню моря атмосферное давление.
Po - Атмосферное давление - измеренное на уровне метеостанции атмосферное давление.
Tmin - Минимальная температура - минимум температуры воздуха на высоте 2 м над землей.
Tmax - Максимальная температура - максимум температуры воздуха на высоте 2 м над землей.
R - Количество осадков - Количество выпавших осадков за период времени, мм. При наведении курсора мыши на число - период времени, за который выпало указанное количество осадков.
R24 - Количество осадков - Количество выпавших осадков за 24 часа, мм.
S - Снежный покров - Высота снежного покрова, см. При наведении курсора мыши на число - состояние снежного покрова и степень покрытия местности в баллах.